Regional Weather Roundup
Issued by NWS

Home | Current Version | Previous Version | Text Only | Print | Product List | Glossary Off
Versions: 1 2 3 4 5 6 7 8 9 10 11 12 13 14 15 16 17 18 19 20 21 22 23 24 25 26 27 28 29 30 31 32 33 34 35 36 37 38 39 40 41 42 43 44 45 46 47 48 49 50

069
ASUS43 KIND 181209
RWRIN

WEATHER ROUNDUP FOR INDIANA
NATIONAL WEATHER SERVICE INDIANAPOLIS IN
700 AM EST SAT NOV 18 2017

NOTE: "FAIR" INDICATES FEW OR NO CLOUDS BELOW 12,000 FEET WITH NO
SIGNIFICANT WEATHER AND/OR OBSTRUCTIONS TO VISIBILITY.

* - STATION DOES NOT REPORT WEATHER SUCH AS PRECIPITATION OR FOG.

+ - STATION NOT QUALITY CONTROLLED BY THE NATIONAL WEATHER SERVICE.
    USE DATA WITH CAUTION...ESPECIALLY DEWPOINT AND RELATIVE
    HUMIDITY OBSERVATIONS.

INZ001>003-010>013-019-020-181300-
NORTHWEST INDIANA

CITY           SKY/WX    TMP DP  RH WIND       PRES   REMARKS
GARY /AIRPORT/ CLOUDY    48  48 100 CALM      29.48F FOG
KNOX *+        CLOUDY    45  45 100 E7        29.48F
LA PORTE +     CLOUDY    44  43  99 CALM      29.48F FOG
6HR MIN TEMP:  42; 6HR MAX TEMP:  44;

MICHIGAN CITY+ CLOUDY    45  45 100 CALM      29.47F FOG
MONTICELLO +   RAIN      50  49  95 CALM      29.47S
6HR MIN TEMP:  47; 6HR MAX TEMP:  52; 6HR PCP:  0.33;

RENSSELAER +   DRIZZLE   48  45  87 NE6       29.46F
VALPARAISO     FOG       47  45  93 E6        29.47F VSB 1
6HR MIN TEMP:  46; 6HR MAX TEMP:  48; 6HR PCP:  0.05;


$$

LMZ046-743>745-181300-
SOUTHERN LAKE MICHIGAN

STATION/POSITION TIME  TEMP    WIND        PRES    WAVE
                       AIR SEA DIR/SP/G            HT
                 (UTC) (F)     (DEG/KT/KT) (MB)    (FT)
BURNS HARBOR     1140   47        CALM      999.0F
MICHIGAN CITY    1140   45     110/  3/  4   N/A

$$

INZ004-005-014>016-021>024-181300-
NORTH CENTRAL INDIANA

CITY           SKY/WX    TMP DP  RH WIND       PRES   REMARKS
GOSHEN         FOG       46  43  89 E7        29.50F VSB 1
6HR MIN TEMP:  44; 6HR MAX TEMP:  46; 6HR PCP:  0.09;

LOGANSPORT +   DRIZZLE   50  48  93 CALM      29.47F
PERU/GRISSOM   LGT RAIN  54  54 100 SW7       29.47F
6HR MIN TEMP:  51; 6HR MAX TEMP:  53; 6HR PCP:  0.38;

ROCHESTER +    DRIZZLE   50  50 100 CALM      29.49F
SOUTH BEND     CLOUDY    44  44 100 E3        29.49F FOG
6HR MIN TEMP:  43; 6HR MAX TEMP:  44; 6HR PCP:  0.06;

WARSAW +       RAIN      45  45 100 E3        29.50F

$$

INZ006>009-017-018-025>027-181300-
NORTHEAST INDIANA

CITY           SKY/WX    TMP DP  RH WIND       PRES   REMARKS
AUBURN +       RAIN      46  45  93 CALM      29.53F
FORT WAYNE     HVY RAIN  49  48  97 CALM      29.52F FOG
6HR MIN TEMP:  47; 6HR MAX TEMP:  51; 6HR PCP:  0.20;

HUNTINGTON +   LGT RAIN  48  47  95 CALM      29.50F
6HR MIN TEMP:  47; 6HR MAX TEMP:  49; 6HR PCP:  0.17;

KENDALLVILLE + DRZL/FOG  45  45 100 CALM      29.52F VSB 1

$$

INZ028-029-035-036-043>045-051>053-181300-
WEST CENTRAL INDIANA

CITY           SKY/WX    TMP DP  RH WIND       PRES   REMARKS
CRAWFORDSVL +  CLOUDY    55  54  94 S13       29.45F
6HR MIN TEMP:  51; 6HR MAX TEMP:  56; 6HR PCP:  0.05;

GREENCASTLE +  CLOUDY    59  52  77 S9G17     29.49F
LAFAYETTE      CLOUDY    52  52 100 SE3       29.44F
6HR MIN TEMP:  51; 6HR MAX TEMP:  55; 6HR PCP:  0.31;

TERRE HAUTE    CLOUDY    62  53  72 S15G24    29.47F
6HR MIN TEMP:  58; 6HR MAX TEMP:  62; 6HR PCP:  0.01;


$$

INZ030>032-037>040-046>048-054>057-064-065-181300-
CENTRAL INDIANA

CITY           SKY/WX    TMP DP  RH WIND       PRES   REMARKS
CP ATTERBURY + CLOUDY    63  52  67 SW16G29   29.53F
COLUMBUS       CLOUDY    57  48  72 S8        29.55
FISHERS *+     CLOUDY    50  50 100 CALM      29.49F
FRANKFORT +    CLOUDY    56  54  90 S6        29.49F
6HR MIN TEMP:  51; 6HR MAX TEMP:  59; 6HR PCP:  0.08;

GREENWOOD *+   CLOUDY    64  55  75 SW10G20   29.51F
6HR MIN TEMP:  53; 6HR MAX TEMP:  64;

INDIANAPOLIS   CLOUDY    61  54  77 SW18G28   29.50F
6HR MIN TEMP:  51; 6HR MAX TEMP:  61; 6HR PCP:  0.01;

-EAGLE CREEK   CLOUDY    61  52  72 S14G20    29.48F
6HR MIN TEMP:  51; 6HR MAX TEMP:  61; 6HR PCP:  0.14;

KOKOMO +       RAIN      55  54  96 SW16      29.48F
6HR MIN TEMP:  47; 6HR MAX TEMP:  55; 6HR PCP:  0.93;

MARION +       CLOUDY    51  50  94 S13       29.50F
MT COMFORT *+  CLOUDY    52  52 100 S7        29.51F
SHELBYVILLE    CLOUDY    58  48  69 S15       29.52F
6HR MIN TEMP:  50; 6HR MAX TEMP:  58; 6HR PCP: TRACE;

ZIONSVILLE +   CLOUDY    57  53  87 S14G21    29.49F
6HR MIN TEMP:  47; 6HR MAX TEMP:  57; 6HR PCP:  0.08;


$$

INZ033-034-041-042-049-050-058-059-181300-
EAST CENTRAL INDIANA

CITY           SKY/WX    TMP DP  RH WIND       PRES   REMARKS
MUNCIE         LGT RAIN  52  48  86 N9G22     29.55R
6HR MIN TEMP:  50; 6HR MAX TEMP:  54; 6HR PCP:  0.14;

RICHMOND +     CLOUDY    52  46  82 S17       29.54F

$$

INZ060-061-067>069-081>083-085>088-181300-
SOUTHWEST INDIANA

CITY           SKY/WX    TMP DP  RH WIND       PRES   REMARKS
EVANSVILLE     CLOUDY    64  57  78 S16G24    29.56F
6HR MIN TEMP:  60; 6HR MAX TEMP:  64;

HUNTINGBURG +  CLOUDY    62  54  74 S17       29.58F
6HR MIN TEMP:  60; 6HR MAX TEMP:  62;

WASHINGTON +   CLOUDY    61  52  71 S21G26    29.51F
6HR MIN TEMP:  59; 6HR MAX TEMP:  61;


$$

INZ062-063-066-070>080-084-089>092-181300-
SOUTH CENTRAL AND SOUTHEAST INDIANA

CITY           SKY/WX    TMP DP  RH WIND       PRES   REMARKS
BEDFORD +      CLOUDY    61  52  72 S17G23    29.54F
BLOOMINGTON    CLOUDY    62  52  69 S15G26    29.52F
6HR MIN TEMP:  60; 6HR MAX TEMP:  63;

MADISON *+     CLOUDY    59  46  63 S15G24    29.62F
NORTH VERNON + CLOUDY    59  48  67 S17G24    29.56F
SEYMOUR +      CLOUDY    61  50  67 S16       29.55F

$$





USA.gov is the U.S. government's official web portal to all federal, state and local government web resources and services.